2022-118B (53885 NORAD) Tracking and Keplerian Element Data

This shows tracking and keplerian element data for the satellite.

Feedback or suggestion? Click here.




ElementValue
Catalog53885
Name2022-118B
Epoch Orbit872
Epoch Day325.27968713
Epoch Year2022
RAAN331.9372
Inclination97.52
Eccentricity0.0014532
Argument of Perigee70.6199
Mean Anonmoly51.5583
Mean Motion15.2427674
Decay Rate4.961E-05
L11 53885U 22118B 22325.27968713 .00004961 00000+0 20560-3 0 9995
L22 53885 97.5200 331.9372 0014532 70.6199 51.5583 15.24276740 8721



Live tracking and technical data element details for 2022-118B (NORAD 53885). 2022-118B can be tracked NOW for your location showing map with azimuth and elevation plus other details from your city location.







IsCatalogInMostPopularTable: catalog: 53885, numindb: -1

Insert: records affected: 1


GetName: 53885 2022-118B

Hit Count: inserted at: Thu, 08 Dec 2022 10:45:40 GMT